AirNav   Everest Fuels
 
 996 users online  

65MI Jet Pad Heliport
Lansing, Michigan, USA

GOING TO LANSING?


FAA INFORMATION EFFECTIVE 18 JUNE 2020

Location

FAA Identifier: 65MI
Lat/Long: 42-40-50.0000N 084-31-36.0000W
42-40.833333N 084-31.600000W
42.6805556,-84.5266667
(estimated)
Elevation: 850 ft. / 259 m (estimated)
From city: 4 miles SE of LANSING, MI
Time zone: UTC -4 (UTC -5 during Standard Time)
Zip code: 48924

Heliport Operations

Heliport use: Private use. Permission required prior to landing
Activation date: 03/2007
Control tower: no
ARTCC: CLEVELAND CENTER
FSS: LANSING FLIGHT SERVICE STATION
Attendance: UNATNDD
Segmented circle: no

Heliport Communications

WX ASOS at LAN (6 nm NW): 119.75 (517-908-8494)
WX AWOS-3 at TEW (8 nm SE): 119.425 (517-676-5607)
WX AWOS-3 at FPK (14 nm SW): 118.075 (517-543-2288)

Nearby radio navigation aids

VOR radial/distance  VOR name  Freq  Var
FNTr249/38.4FLINT VORTAC116.9006W
LFDr021/38.6LITCHFIELD VOR/DME111.2005W

Heliport Services

Runway Information

Helipad H1

Dimensions: 150 x 150 ft. / 46 x 46 m
Surface: turf
Traffic pattern: leftleft

Heliport Ownership and Management from official FAA records

Ownership: Privately-owned
Owner: WADE HABERKAMP
6044 LAKEVIEW PARK DR
LINDEN, MI 48451-9097
Phone 810-735-6346
Manager: WADE HABERKAMP
6044 LAKEVIEW PARK DR
LINDEN, MI 48451-9097
Phone 810-735-6346

Additional Remarks

250 FT CELL TWR 1,500 FT W; 100 FT PLINE 400 FT N; 60 FT PLINE 200 FT W & 60 FT TREES 100 FT E & SW.
FOR CD CTC GREAT LAKES APCH AT 269-459-3345, WHEN APCH CLSD CTC CLEVELAND ARTCC AT 440-774-0224/0490.

Instrument Procedures

There are no published instrument procedures at 65MI.

Some nearby airports with instrument procedures:

KLAN - Capital Region International Airport (6 nm NW)
KTEW - Mason Jewett Field Airport (8 nm SE)
4D0 - Abrams Municipal Airport (11 nm NW)
KFPK - Fitch H Beach Airport (14 nm SW)
KOZW - Livingston County Spencer J Hardy Airport (24 nm E)
 
Loc | Ops | Rwys | IFR | FBO | Links
Com | Nav | Svcs | Stats | Notes
Area around 65MI (Jet Pad Heliport)
 
Road maps at: MapQuest Bing Google
 
Aerial photo
No photo
 
Sectional chart

 
Airport distance calculator
Flying to Jet Pad Heliport? Find the distance to fly.

From to 65MI

Sunrise and sunset
Times for 06-Jul-2020
 Local
(UTC-4)
 Zulu
(UTC)
Morning civil twilight05:3409:34
Sunrise06:0810:08
Sunset21:1701:17
Evening civil twilight21:5201:52

Current date and time
Zulu (UTC)  07-Jul-2020 00:17:25
Local (UTC-4)  06-Jul-2020 20:17:25
 
METAR
KLAN 
7nm N 
062353Z 27003KT 10SM CLR 32/14 A2997 RMK AO2 SLP141 T03220144 10344 20311 58003
KTEW 
8nm SE 
062355Z AUTO 19004KT 10SM CLR 30/15 A2998 RMK AO2 T02980151 10320 20298
KFPK 
15nm SW 
062356Z AUTO 00000KT 10SM CLR 31/20 A2997 RMK AO2 T03070195 10330 20305
TAF
KLAN 
7nm N 
061720Z 0618/0718 23005KT P6SM SCT050 FM071200 21005KT P6SM BKN250
NOTAMs
Click for the latest NOTAMs
NOTAMs are issued by the DoD/FAA and will open in a separate window not controlled by AirNav.

 

 
 

Would you like to see your business listed on this page?

 If your business provides an interesting product or service to pilots, flight crews, aircraft, or users of the Jet Pad Heliport, you should consider listing it here.  To start the listing process, click on the button below
 
Add a business
 

Other Pages about Jet Pad Heliport

Update a link
 
Copyright © AirNav, LLC. All rights reserved. Privacy Policy  Contact